�������C�����ː����j�^�v���󋵏��
Date,Time,Cs137(Bq/L),Cs134(Bq/L),�S��(Bq/L)
2017/06/10,00:00,0.83,0.037,ND
2017/06/10,00:10,0.84,0.034,ND
2017/06/10,00:20,0.82,0.044,ND
2017/06/10,00:30,0.82,0.039,ND
2017/06/10,00:40,0.80,0.044,ND
2017/06/10,00:50,0.78,0.048,ND
2017/06/10,01:00,0.79,0.042,ND
2017/06/10,01:10,0.73,0.053,ND
2017/06/10,01:20,0.73,0.055,ND
2017/06/10,01:30,0.73,0.052,ND
2017/06/10,01:40,0.70,0.053,ND
2017/06/10,01:50,0.74,0.053,ND
2017/06/10,02:00,0.75,0.052,ND
2017/06/10,02:10,0.78,0.040,ND
2017/06/10,02:20,0.77,0.044,ND
2017/06/10,02:30,0.70,0.047,ND
2017/06/10,02:40,0.75,0.039,ND
2017/06/10,02:50,0.77,0.033,9.2
2017/06/10,03:00,0.72,0.032,ND
2017/06/10,03:10,0.70,0.036,9.7
2017/06/10,03:20,0.71,0.035,11
2017/06/10,03:30,0.70,0.039,11
2017/06/10,03:40,0.71,0.046,10
2017/06/10,03:50,0.71,0.042,ND
2017/06/10,04:00,0.70,0.053,9.6
2017/06/10,04:10,0.70,0.053,9.5
2017/06/10,04:20,0.69,0.043,9.3
2017/06/10,04:30,0.70,0.038,ND
2017/06/10,04:40,0.69,0.035,ND
2017/06/10,04:50,0.69,0.032,ND
2017/06/10,05:00,0.71,0.031,ND
2017/06/10,05:10,0.71,0.025,ND
2017/06/10,05:20,0.73,0.032,ND
2017/06/10,05:30,0.74,0.026,ND
2017/06/10,05:40,0.74,0.029,ND
2017/06/10,05:50,0.74,0.037,ND
2017/06/10,06:00,0.73,0.041,ND
2017/06/10,06:10,0.71,0.042,ND
2017/06/10,06:20,0.71,0.036,ND
2017/06/10,06:30,0.71,0.047,ND
2017/06/10,06:40,0.80,0.042,ND
2017/06/10,06:50,0.71,0.046,ND
2017/06/10,07:00,0.78,0.042,9.5
2017/06/10,07:10,0.71,0.041,8.9
2017/06/10,07:20,0.78,0.044,11
2017/06/10,07:30,0.74,0.043,11
2017/06/10,07:40,0.73,0.051,11
2017/06/10,07:50,0.75,0.040,ND
2017/06/10,08:00,0.77,0.044,ND
2017/06/10,08:10,0.80,0.044,ND
2017/06/10,08:20,0.81,0.044,ND
2017/06/10,08:30,0.79,0.044,ND
2017/06/10,08:40,0.81,0.045,ND
2017/06/10,08:50,0.82,0.046,ND
2017/06/10,09:00,0.82,0.041,ND
2017/06/10,09:10,0.80,0.042,ND
2017/06/10,09:20,0.77,0.046,ND
2017/06/10,09:30,0.77,0.046,ND
2017/06/10,09:40,0.83,0.043,ND
2017/06/10,09:50,0.76,0.048,ND
2017/06/10,10:00,0.75,0.056,ND
2017/06/10,10:10,0.74,0.058,ND
2017/06/10,10:20,0.72,0.052,ND
2017/06/10,10:30,0.71,0.047,ND
2017/06/10,10:40,0.68,0.047,ND
2017/06/10,10:50,0.68,0.041,ND
2017/06/10,11:00,0.70,0.029,ND
2017/06/10,11:10,0.73,ND,ND
2017/06/10,11:20,0.77,ND,ND
2017/06/10,11:30,0.75,0.027,ND
2017/06/10,11:40,0.76,0.026,ND
2017/06/10,11:50,0.76,0.027,ND
2017/06/10,12:00,0.81,0.033,ND
2017/06/10,12:10,0.77,0.030,ND
2017/06/10,12:20,0.74,0.034,ND
2017/06/10,12:30,0.74,0.037,ND
2017/06/10,12:40,0.73,0.033,ND
2017/06/10,12:50,0.74,0.032,11
2017/06/10,13:00,0.73,0.034,9.3
2017/06/10,13:10,0.71,0.041,9.7
2017/06/10,13:20,0.71,0.041,11
2017/06/10,13:30,0.69,0.038,11
2017/06/10,13:40,0.70,0.033,ND
2017/06/10,13:50,0.71,0.033,ND
2017/06/10,14:00,0.70,0.039,8.8
2017/06/10,14:10,0.70,0.044,ND
2017/06/10,14:20,0.71,0.033,ND
2017/06/10,14:30,0.76,0.035,9.6
2017/06/10,14:40,0.78,0.064,11
2017/06/10,14:50,0.79,0.084,11
2017/06/10,15:00,0.82,0.096,10
2017/06/10,15:10,0.83,0.10,11
2017/06/10,15:20,0.83,0.11,9.7
2017/06/10,15:30,0.81,0.099,ND
2017/06/10,15:40,0.78,0.079,9.7
2017/06/10,15:50,0.76,0.063,9.7
2017/06/10,16:00,0.71,0.054,8.8
2017/06/10,16:10,0.70,0.053,ND
2017/06/10,16:20,0.67,0.053,ND
2017/06/10,16:30,0.67,0.054,ND
2017/06/10,16:40,0.66,0.057,ND
2017/06/10,16:50,0.69,0.050,ND
2017/06/10,17:00,0.71,0.037,ND
2017/06/10,17:10,0.76,0.038,ND
2017/06/10,17:20,0.74,0.033,ND
2017/06/10,17:30,0.75,0.031,ND
2017/06/10,17:40,0.85,ND,ND
2017/06/10,17:50,0.85,ND,ND
2017/06/10,18:00,0.82,ND,ND
2017/06/10,18:10,0.82,ND,ND
2017/06/10,18:20,0.77,0.030,ND
2017/06/10,18:30,0.78,0.027,ND
2017/06/10,18:40,0.77,0.038,ND
2017/06/10,18:50,0.74,0.053,ND
2017/06/10,19:00,0.76,0.048,ND
2017/06/10,19:10,0.79,0.045,ND
2017/06/10,19:20,0.80,0.044,ND
2017/06/10,19:30,0.80,0.045,ND
2017/06/10,19:40,0.80,0.046,ND
2017/06/10,19:50,0.82,0.040,ND
2017/06/10,20:00,0.88,0.037,ND
2017/06/10,20:10,0.82,0.041,ND
2017/06/10,20:20,0.84,0.036,ND
2017/06/10,20:30,0.85,0.034,8.8
2017/06/10,20:40,0.84,0.033,10
2017/06/10,20:50,0.85,0.037,9.7
2017/06/10,21:00,0.87,0.037,11
2017/06/10,21:10,0.88,0.038,10
2017/06/10,21:20,0.88,0.034,ND
2017/06/10,21:30,0.80,0.075,ND
2017/06/10,21:40,0.80,0.071,ND
2017/06/10,21:50,0.82,0.062,ND
2017/06/10,22:00,0.83,0.042,ND
2017/06/10,22:10,0.80,0.036,ND
2017/06/10,22:20,0.81,0.040,ND
2017/06/10,22:30,0.85,0.038,ND
2017/06/10,22:40,0.84,0.045,ND
2017/06/10,22:50,0.82,0.045,ND
2017/06/10,23:00,0.85,0.035,ND
2017/06/10,23:10,0.84,0.048,ND
2017/06/10,23:20,0.85,0.046,ND
2017/06/10,23:30,0.82,0.046,ND
2017/06/10,23:40,0.85,0.044,ND
2017/06/10,23:50,0.87,0.038,ND
